Weather History for GMME - January, 2014

Change the Weather History Date:

Friday, January 10, 2014

  Actual Average Record
Temperature  
Mean Temperature 56 °F -  
Max Temperature 68 °F 61 °F 73 °F (1998)
Min Temperature 45 °F 44 °F 37 °F (2012)
Degree Days  
Heating Degree Days 8    
Growing Degree Days 6 (Base 50)    
Moisture  
Dew Point 47 °F    
Average Humidity 64    
Maximum Humidity 93    
Minimum Humidity 28    
Precipitation  
Precipitation 0.00 in 0.10 in - ()
Sea Level Pressure  
Sea Level Pressure 29.85 in    
Wind  
Wind Speed 4 mph ()    
Max Wind Speed 12 mph    
Max Gust Speed -    
Visibility 4.0 miles    
Events Rain    
Averages and records for this station are not official NWS values.
T = Trace of Precipitation, MM = Missing Value Source: Averaged Metar Reports

Daily Weather History Graph

Daily Weather History Graph

Search for Another Location

Airport or City:

Trip Planner

Search our weather history database for the weather conditions in past years. The results will help you decide how hot, cold, wet, or windy it might be!

Date:

Astronomy

Jan. 10, 2014 Rise Set
Actual Time 7:33 AM WET 5:36 PM WET
Civil Twilight 7:05 AM WET 6:03 PM WET
Nautical Twilight 6:34 AM WET 6:34 PM WET
Astronomical Twilight 6:04 AM WET 7:04 PM WET
Moon 1:27 PM WET (1/10) 2:31 AM WET (1/10)
Length of Visible Light 10h 57m
Length of Day
10h 02m
Waxing Gibbous, 73% of the Moon is Illuminated
Jan 10
Waxing Gibbous
Jan 16
Full
Jan 24
Last Quarter
Jan 30
New
Feb 6
First Quarter

Hourly Weather History & Observations

Time (WET) Temp. Dew Point Humidity Pressure Visibility Wind Dir Wind Speed Gust Speed Precip Events Conditions
12:00 AM 48.2 °F 46.4 °F 93% 29.83 in 3.1 mi South 1.2 mph - N/A   Mostly Cloudy
12:30 AM 51.8 °F 48.2 °F 88% 29.83 in 3.1 mi South 3.5 mph - N/A   Mostly Cloudy
1:00 AM 53.6 °F 50.0 °F 88% 29.83 in 3.1 mi SE 4.6 mph - N/A   Mostly Cloudy
1:30 AM 53.6 °F 50.0 °F 88% 29.80 in 3.1 mi Variable 2.3 mph - N/A   Mostly Cloudy
2:00 AM 55.4 °F 50.0 °F 82% 29.80 in - ESE 6.9 mph - N/A   Unknown
2:30 AM 51.8 °F 48.2 °F 88% 29.80 in - Variable 1.2 mph - N/A   Unknown
3:00 AM 54 °F 47 °F 71% 29.82 in 3 mi SSE 3.5 mph - -   Scattered Clouds
3:00 AM 53.6 °F 48.2 °F 82% 29.80 in 3.1 mi SSE 3.5 mph - N/A   Mostly Cloudy
4:00 AM 51.8 °F 46.4 °F 82% 29.80 in 3.1 mi SE 6.9 mph - N/A   Mostly Cloudy
5:00 AM 55.4 °F 46.4 °F 72% 29.80 in 3.1 mi SSE 4.6 mph - N/A   Mostly Cloudy
5:30 AM 55.4 °F 44.6 °F 67% 29.80 in 3.1 mi ESE 4.6 mph - N/A   Mostly Cloudy
6:00 AM 56 °F 44 °F 54% 29.82 in 3 mi SE 3.5 mph - -   Scattered Clouds
6:00 AM 57.2 °F 44.6 °F 63% 29.80 in 3.1 mi SE 3.5 mph - N/A   Mostly Cloudy
6:30 AM 53.6 °F 44.6 °F 72% 29.80 in 3.1 mi Variable 2.3 mph - N/A   Mostly Cloudy
7:00 AM 57.2 °F 44.6 °F 63% 29.83 in 3.7 mi Variable 2.3 mph - N/A   Mostly Cloudy
8:00 AM 51.8 °F 44.6 °F 76% 29.83 in 3.7 mi Calm Calm - N/A   Mostly Cloudy
8:30 AM 51.8 °F 44.6 °F 76% 29.83 in 3.7 mi SSW 2.3 mph - N/A   Mostly Cloudy
9:00 AM 55 °F 49 °F 76% 29.86 in 5 mi East 1.2 mph - -   Partly Cloudy
9:00 AM 55.4 °F 50.0 °F 82% 29.86 in 5.0 mi Variable 1.2 mph - N/A   Mostly Cloudy
9:30 AM 60.8 °F 51.8 °F 72% 29.86 in 5.0 mi Variable 2.3 mph - N/A   Mostly Cloudy
10:00 AM 62.6 °F 48.2 °F 59% 29.86 in 5.0 mi SE 3.5 mph - N/A   Mostly Cloudy
10:30 AM 64.4 °F 48.2 °F 56% 29.86 in 5.0 mi SE 3.5 mph - N/A   Mostly Cloudy
11:00 AM 66.2 °F 46.4 °F 49% 29.89 in 5.0 mi Variable 2.3 mph - N/A   Mostly Cloudy
11:30 AM 66.2 °F 46.4 °F 49% 29.89 in 5.0 mi SE 3.5 mph - N/A   Mostly Cloudy
12:00 PM 66 °F 48 °F 42% 29.88 in 5 mi SSE 3.5 mph - -   Mostly Cloudy
12:00 PM 66.2 °F 48.2 °F 52% 29.86 in 5.0 mi SSE 3.5 mph - N/A   Mostly Cloudy
12:30 PM 68.0 °F 44.6 °F 43% 29.86 in 5.0 mi South 5.8 mph - N/A   Mostly Cloudy
1:00 PM 68.0 °F 41.0 °F 37% 29.86 in 5.0 mi SSW 10.4 mph - N/A   Mostly Cloudy
1:30 PM 68.0 °F 44.6 °F 43% 29.83 in 5.0 mi SSW 8.1 mph - N/A   Mostly Cloudy
2:00 PM 68.0 °F 42.8 °F 40% 29.83 in 5.0 mi SW 11.5 mph - N/A   Scattered Clouds
2:30 PM 68.0 °F 42.8 °F 40% 29.83 in 5.0 mi SSW 5.8 mph - N/A   Scattered Clouds
3:00 PM 67 °F 42 °F 28% 29.83 in 5 mi South 5.8 mph - -   Mostly Cloudy
3:00 PM 68.0 °F 41.0 °F 37% 29.83 in 5.0 mi South 5.8 mph - N/A   Scattered Clouds
3:30 PM 66.2 °F 44.6 °F 46% 29.83 in 5.0 mi SW 3.5 mph - N/A   Scattered Clouds
4:00 PM 66.2 °F 42.8 °F 43% 29.83 in 5.0 mi Variable 2.3 mph - N/A   Scattered Clouds
4:30 PM 64.4 °F 44.6 °F 49% 29.83 in 5.0 mi NNW 5.8 mph - N/A   Scattered Clouds
5:00 PM 64.4 °F 44.6 °F 49% 29.86 in 5.0 mi West 4.6 mph - N/A   Scattered Clouds
5:30 PM 64.4 °F 46.4 °F 52% 29.86 in 3.7 mi West 4.6 mph - N/A   Scattered Clouds
6:00 PM 61 °F 47 °F 49% 29.87 in 4 mi SW 2.3 mph - -   Mostly Cloudy
6:00 PM 60.8 °F 46.4 °F 59% 29.86 in 3.7 mi Variable 2.3 mph - N/A   Scattered Clouds
6:30 PM 57.2 °F 46.4 °F 67% 29.86 in 3.7 mi Calm Calm - N/A   Scattered Clouds
7:00 PM 55.4 °F 46.4 °F 72% 29.86 in 3.7 mi SSW 2.3 mph - N/A   Scattered Clouds
7:30 PM 55.4 °F 48.2 °F 77% 29.89 in 3.7 mi SW 3.5 mph - N/A   Scattered Clouds
8:00 PM 59.0 °F 51.8 °F 77% 29.86 in 3.7 mi WNW 4.6 mph - N/A   Scattered Clouds
8:30 PM 60.8 °F 50.0 °F 68% 29.89 in 3.7 mi South 8.1 mph - N/A   Mostly Cloudy
9:00 PM 61 °F 49 °F 56% 29.93 in 4 mi South 8.1 mph - -   Partly Cloudy
9:00 PM 60.8 °F 50.0 °F 68% 29.92 in 3.7 mi South 8.1 mph - N/A   Mostly Cloudy
9:30 PM 60.8 °F 51.8 °F 72% 29.92 in 3.1 mi WNW 8.1 mph - N/A Rain Light Rain
10:00 PM 60.8 °F 51.8 °F 72% 29.92 in 3.1 mi Calm Calm - N/A   Mostly Cloudy
10:30 PM 59.0 °F 53.6 °F 82% 29.95 in 3.1 mi WSW 6.9 mph - N/A   Mostly Cloudy
11:00 PM 59.0 °F 53.6 °F 82% 29.95 in 3.1 mi SSW 5.8 mph - N/A   Mostly Cloudy
11:30 PM 59.0 °F 53.6 °F 82% 29.95 in 3.1 mi South 4.6 mph - N/A   Mostly Cloudy